Portada
METAR-TAF:

METAR-TAF

Aeropuertos :

Chugiak, Alaska, Estados Unidos

latitud: 61-25N, longitud: 149-31W, altitud: 29 m

Observación

El informe se hizo hace 39 minutos, a las 03:56 UTC
Viento calma
Temperatura 14°C
Humedad 28%
Presión 1009 hPa
Visibilidad: 16.1 km
Cielo despejado

METAR: PABV 210356Z AUTO 00000KT 10SM CLR 14/M04 A2980 RMK AO2 SLP098 T01391039

Hora: 20:35 (04:35 UTC)


TAF: falta

Observaciones y pronósticos meteorológicos de más de 4000 aeropuertos (mensajes METAR y TAF).

Los puntos amarillos y rojos representan las estaciones disponibles.

Ponga el ratón en el punto deseado para ver el nombre de la estación.

Haga clic para ver las observaciones y los pronósticos meteorológicos.

Para cambiar el mapa : haga clic en los botones verdes con una cruz de color negro para hacer un zoom, en el botón verde con un guión para alejar o en las flechas verdes para mapas adyacentes.


METAR-TAF: